Year,Month,Day,Hour,Minute,Value (Times are PST for windspeed in km/hr)
2007,11,13,00,00,20.50
2007,11,13,00,01,19.40
2007,11,13,00,02,18.60
2007,11,13,00,03,20.60
2007,11,13,00,04,24.50
2007,11,13,00,05,16.40
2007,11,13,00,06,23.70
2007,11,13,00,07,30.50
2007,11,13,00,08,22.60
2007,11,13,00,09,15.00
2007,11,13,00,10,10.70
2007,11,13,00,11,7.40
2007,11,13,00,12,13.30
2007,11,13,00,13,11.20
2007,11,13,00,14,4.50
2007,11,13,00,15,9.70
2007,11,13,00,16,3.60
2007,11,13,00,17,6.80
2007,11,13,00,18,7.30
2007,11,13,00,19,10.30
2007,11,13,00,20,7.60
2007,11,13,00,21,6.40
2007,11,13,00,22,9.20
2007,11,13,00,23,7.00
2007,11,13,00,24,7.00
2007,11,13,00,25,5.80
2007,11,13,00,26,7.40
2007,11,13,00,27,7.30
2007,11,13,00,28,6.90
2007,11,13,00,29,6.00
2007,11,13,00,30,6.20
2007,11,13,00,31,8.50
2007,11,13,00,32,7.30
2007,11,13,00,33,8.80
2007,11,13,00,34,7.60
2007,11,13,00,35,6.40
2007,11,13,00,36,6.00
2007,11,13,00,37,6.40
2007,11,13,00,38,7.00
2007,11,13,00,39,7.10
2007,11,13,00,40,8.20
2007,11,13,00,41,9.00
2007,11,13,00,42,8.90
2007,11,13,00,43,15.90
2007,11,13,00,44,13.10
2007,11,13,00,45,12.00
2007,11,13,00,46,14.20
2007,11,13,00,47,12.80
2007,11,13,00,48,13.40
2007,11,13,00,49,16.40
2007,11,13,00,50,15.10
2007,11,13,00,51,16.50
2007,11,13,00,52,19.70
2007,11,13,00,53,14.00
2007,11,13,00,54,15.80
2007,11,13,00,55,27.80
2007,11,13,00,56,18.50
2007,11,13,00,57,15.10
2007,11,13,00,58,17.10
2007,11,13,00,59,17.60
2007,11,13,01,00,17.00
2007,11,13,01,01,25.00
2007,11,13,01,02,21.60
2007,11,13,01,03,26.90
2007,11,13,01,04,22.90
2007,11,13,01,05,14.60
2007,11,13,01,06,19.00
2007,11,13,01,07,15.70
2007,11,13,01,08,10.60
2007,11,13,01,09,20.10
2007,11,13,01,10,12.30
2007,11,13,01,11,8.30
2007,11,13,01,12,5.90
2007,11,13,01,13,6.00
2007,11,13,01,14,5.20
2007,11,13,01,15,6.30
2007,11,13,01,16,10.90
2007,11,13,01,17,7.20
2007,11,13,01,18,8.00
2007,11,13,01,19,8.10
2007,11,13,01,20,4.60
2007,11,13,01,21,4.40
2007,11,13,01,22,6.00
2007,11,13,01,23,8.40
2007,11,13,01,24,8.60
2007,11,13,01,25,10.20
2007,11,13,01,26,4.70
2007,11,13,01,27,9.10
2007,11,13,01,28,10.90
2007,11,13,01,29,10.00
2007,11,13,01,30,10.20
2007,11,13,01,31,8.10
2007,11,13,01,32,8.50
2007,11,13,01,33,7.70
2007,11,13,01,34,9.10
2007,11,13,01,35,6.80
2007,11,13,01,36,10.10
2007,11,13,01,37,11.30
2007,11,13,01,38,7.60
2007,11,13,01,39,10.40
2007,11,13,01,40,6.40
2007,11,13,01,41,8.10
2007,11,13,01,42,7.50
2007,11,13,01,43,7.70
2007,11,13,01,44,4.20
2007,11,13,01,45,4.70
2007,11,13,01,46,6.00
2007,11,13,01,47,11.60
2007,11,13,01,48,6.00
2007,11,13,01,49,6.70
2007,11,13,01,50,5.60
2007,11,13,01,51,6.60
2007,11,13,01,52,4.30
2007,11,13,01,53,2.40
2007,11,13,01,54,3.50
2007,11,13,01,55,7.50
2007,11,13,01,56,2.70
2007,11,13,01,57,4.90
2007,11,13,01,58,4.10
2007,11,13,01,59,4.30
2007,11,13,02,00,5.20
2007,11,13,02,01,5.10
2007,11,13,02,02,4.40
2007,11,13,02,03,6.20
2007,11,13,02,04,3.60
2007,11,13,02,05,7.40
2007,11,13,02,06,6.80
2007,11,13,02,07,6.90
2007,11,13,02,08,7.60
2007,11,13,02,09,9.70
2007,11,13,02,10,6.30
2007,11,13,02,11,7.20
2007,11,13,02,12,10.60
2007,11,13,02,13,6.50
2007,11,13,02,14,8.70
2007,11,13,02,15,9.80
2007,11,13,02,16,6.70
2007,11,13,02,17,8.40
2007,11,13,02,18,8.00
2007,11,13,02,19,8.40
2007,11,13,02,20,7.60
2007,11,13,02,21,7.80
2007,11,13,02,22,13.00
2007,11,13,02,23,10.40
2007,11,13,02,24,11.80
2007,11,13,02,25,11.00
2007,11,13,02,26,8.00
2007,11,13,02,27,8.50
2007,11,13,02,28,12.20
2007,11,13,02,29,7.60
2007,11,13,02,30,8.40
2007,11,13,02,31,14.10
2007,11,13,02,32,10.80
2007,11,13,02,33,7.10
2007,11,13,02,34,10.90
2007,11,13,02,35,10.20
2007,11,13,02,36,9.00
2007,11,13,02,37,8.90
2007,11,13,02,38,15.00
2007,11,13,02,39,15.60
2007,11,13,02,40,14.60
2007,11,13,02,41,13.70
2007,11,13,02,42,10.10
2007,11,13,02,43,13.30
2007,11,13,02,44,10.50
2007,11,13,02,45,12.20
2007,11,13,02,46,10.70
2007,11,13,02,47,8.80
2007,11,13,02,48,12.30
2007,11,13,02,49,10.10
2007,11,13,02,50,8.50
2007,11,13,02,51,9.80
2007,11,13,02,52,8.40
2007,11,13,02,53,9.40
2007,11,13,02,54,10.20
2007,11,13,02,55,17.10
2007,11,13,02,56,8.30
2007,11,13,02,57,12.50
2007,11,13,02,58,7.50
2007,11,13,02,59,10.50
2007,11,13,03,00,5.60
2007,11,13,03,01,7.60
2007,11,13,03,02,13.00
2007,11,13,03,03,20.60
2007,11,13,03,04,16.70
2007,11,13,03,05,14.20
2007,11,13,03,06,15.00
2007,11,13,03,07,10.20
2007,11,13,03,08,14.30
2007,11,13,03,09,11.00
2007,11,13,03,10,8.80
2007,11,13,03,11,7.70
2007,11,13,03,12,9.20
2007,11,13,03,13,8.10
2007,11,13,03,14,7.50
2007,11,13,03,15,9.00
2007,11,13,03,16,12.00
2007,11,13,03,17,9.50
2007,11,13,03,18,9.60
2007,11,13,03,19,7.60
2007,11,13,03,20,7.40
2007,11,13,03,21,7.20
2007,11,13,03,22,8.80
2007,11,13,03,23,6.30
2007,11,13,03,24,6.90
2007,11,13,03,25,4.30
2007,11,13,03,26,9.10
2007,11,13,03,27,8.30
2007,11,13,03,28,9.30
2007,11,13,03,29,7.10
2007,11,13,03,30,7.40
2007,11,13,03,31,7.60
2007,11,13,03,32,5.90
2007,11,13,03,33,8.20
2007,11,13,03,34,7.20
2007,11,13,03,35,6.30
2007,11,13,03,36,4.30
2007,11,13,03,37,6.40
2007,11,13,03,38,10.10
2007,11,13,03,39,6.70
2007,11,13,03,40,5.20
2007,11,13,03,41,7.80
2007,11,13,03,42,8.60
2007,11,13,03,43,14.10
2007,11,13,03,44,10.60
2007,11,13,03,45,11.50
2007,11,13,03,46,10.10
2007,11,13,03,47,7.20
2007,11,13,03,48,8.90
2007,11,13,03,49,10.90
2007,11,13,03,50,7.50
2007,11,13,03,51,8.90
2007,11,13,03,52,8.40
2007,11,13,03,53,11.30
2007,11,13,03,54,12.00
2007,11,13,03,55,8.20
2007,11,13,03,56,8.20
2007,11,13,03,57,6.00
2007,11,13,03,58,6.50
2007,11,13,03,59,9.70
2007,11,13,04,00,7.70
2007,11,13,04,01,7.40
2007,11,13,04,02,8.80
2007,11,13,04,03,10.10
2007,11,13,04,04,7.40
2007,11,13,04,05,8.90
2007,11,13,04,06,6.10
2007,11,13,04,07,8.50
2007,11,13,04,08,9.10
2007,11,13,04,09,7.20
2007,11,13,04,10,11.40
2007,11,13,04,11,8.40
2007,11,13,04,12,7.20
2007,11,13,04,13,8.80
2007,11,13,04,14,9.70
2007,11,13,04,15,4.40
2007,11,13,04,16,5.80
2007,11,13,04,17,5.80
2007,11,13,04,18,6.50
2007,11,13,04,19,7.30
2007,11,13,04,20,9.70
2007,11,13,04,21,10.30
2007,11,13,04,22,9.40
2007,11,13,04,23,7.50
2007,11,13,04,24,8.30
2007,11,13,04,25,7.10
2007,11,13,04,26,7.60
2007,11,13,04,27,7.20
2007,11,13,04,28,6.70
2007,11,13,04,29,8.70
2007,11,13,04,30,7.20
2007,11,13,04,31,7.60
2007,11,13,04,32,7.30
2007,11,13,04,33,5.50
2007,11,13,04,34,6.20
2007,11,13,04,35,5.40
2007,11,13,04,36,6.40
2007,11,13,04,37,5.40
2007,11,13,04,38,6.00
2007,11,13,04,39,5.30
2007,11,13,04,40,5.10
2007,11,13,04,41,5.20
2007,11,13,04,42,3.20
2007,11,13,04,43,3.60
2007,11,13,04,44,2.70
2007,11,13,04,45,1.00
2007,11,13,04,46,0.70
2007,11,13,04,47,0.10
2007,11,13,04,48,1.70
2007,11,13,04,49,0.70
2007,11,13,04,50,1.70
2007,11,13,04,51,0.70
2007,11,13,04,52,0.00
2007,11,13,04,53,0.00
2007,11,13,04,54,0.00
2007,11,13,04,55,0.00
2007,11,13,04,56,0.00
2007,11,13,04,57,0.10
2007,11,13,04,58,0.00
2007,11,13,04,59,0.20
2007,11,13,05,00,2.40
2007,11,13,05,01,1.30
2007,11,13,05,02,2.90
2007,11,13,05,03,4.50
2007,11,13,05,04,4.70
2007,11,13,05,05,5.50
2007,11,13,05,06,5.10
2007,11,13,05,07,6.20
2007,11,13,05,08,7.30
2007,11,13,05,09,6.40
2007,11,13,05,10,6.40
2007,11,13,05,11,6.80
2007,11,13,05,12,7.50
2007,11,13,05,13,8.10
2007,11,13,05,14,7.40
2007,11,13,05,15,6.10
2007,11,13,05,16,5.80
2007,11,13,05,17,5.70
2007,11,13,05,18,6.10
2007,11,13,05,19,6.70
2007,11,13,05,20,8.20
2007,11,13,05,21,8.60
2007,11,13,05,22,10.30
2007,11,13,05,23,11.00
2007,11,13,05,24,15.00
2007,11,13,05,25,11.80
2007,11,13,05,26,13.30
2007,11,13,05,27,13.50
2007,11,13,05,28,13.30
2007,11,13,05,29,11.60
2007,11,13,05,30,9.90
2007,11,13,05,31,12.00
2007,11,13,05,32,12.40
2007,11,13,05,33,9.30
2007,11,13,05,34,12.20
2007,11,13,05,35,13.80
2007,11,13,05,36,12.00
2007,11,13,05,37,11.90
2007,11,13,05,38,12.00
2007,11,13,05,39,15.00
2007,11,13,05,40,11.20
2007,11,13,05,41,11.30
2007,11,13,05,42,16.60
2007,11,13,05,43,16.80
2007,11,13,05,44,19.20
2007,11,13,05,45,14.50
2007,11,13,05,46,13.40
2007,11,13,05,47,8.80
2007,11,13,05,48,9.30
2007,11,13,05,49,12.50
2007,11,13,05,50,8.30
2007,11,13,05,51,14.20
2007,11,13,05,52,9.10
2007,11,13,05,53,11.60
2007,11,13,05,54,8.60
2007,11,13,05,55,9.50
2007,11,13,05,56,10.50
2007,11,13,05,57,13.50
2007,11,13,05,58,9.30
2007,11,13,05,59,6.70
2007,11,13,06,00,11.00
2007,11,13,06,01,7.30
2007,11,13,06,02,6.20
2007,11,13,06,03,10.50
2007,11,13,06,04,6.80
2007,11,13,06,05,6.80
2007,11,13,06,06,6.80
2007,11,13,06,07,8.60
2007,11,13,06,08,3.00
2007,11,13,06,09,5.70
2007,11,13,06,10,8.70
2007,11,13,06,11,11.60
2007,11,13,06,12,6.20
2007,11,13,06,13,11.70
2007,11,13,06,14,12.00
2007,11,13,06,15,8.10
2007,11,13,06,16,8.00
2007,11,13,06,17,11.50
2007,11,13,06,18,12.00
2007,11,13,06,19,11.70
2007,11,13,06,20,14.40
2007,11,13,06,21,15.40
2007,11,13,06,22,13.30
2007,11,13,06,23,12.90
2007,11,13,06,24,11.10
2007,11,13,06,25,19.70
2007,11,13,06,26,14.30
2007,11,13,06,27,15.20
2007,11,13,06,28,13.10
2007,11,13,06,29,13.00
2007,11,13,06,30,17.30
2007,11,13,06,31,15.40
2007,11,13,06,32,9.90
2007,11,13,06,33,11.40
2007,11,13,06,34,11.90
2007,11,13,06,35,9.20
2007,11,13,06,36,11.40
2007,11,13,06,37,8.90
2007,11,13,06,38,11.50
2007,11,13,06,39,11.30
2007,11,13,06,40,12.30
2007,11,13,06,41,9.20
2007,11,13,06,42,10.00
2007,11,13,06,43,13.20
2007,11,13,06,44,8.10
2007,11,13,06,45,7.80
2007,11,13,06,46,9.80
2007,11,13,06,47,12.30
2007,11,13,06,48,10.60
2007,11,13,06,49,10.90
2007,11,13,06,50,8.80
2007,11,13,06,51,15.80
2007,11,13,06,52,11.40
2007,11,13,06,53,11.00
2007,11,13,06,54,10.30
2007,11,13,06,55,8.60
2007,11,13,06,56,13.40
2007,11,13,06,57,8.50
2007,11,13,06,58,9.80
2007,11,13,06,59,8.60
2007,11,13,07,00,13.30
2007,11,13,07,01,12.80
2007,11,13,07,02,11.20
2007,11,13,07,03,9.50
2007,11,13,07,04,9.90
2007,11,13,07,05,8.80
2007,11,13,07,06,10.00
2007,11,13,07,07,6.20
2007,11,13,07,08,12.00
2007,11,13,07,09,12.60
2007,11,13,07,10,11.60
2007,11,13,07,11,10.90
2007,11,13,07,12,11.80
2007,11,13,07,13,9.50
2007,11,13,07,14,10.20
2007,11,13,07,15,7.40
2007,11,13,07,16,7.20
2007,11,13,07,17,5.80
2007,11,13,07,18,7.00
2007,11,13,07,19,6.20
2007,11,13,07,20,7.10
2007,11,13,07,21,6.40
2007,11,13,07,22,5.00
2007,11,13,07,23,6.90
2007,11,13,07,24,6.90
2007,11,13,07,25,7.70
2007,11,13,07,26,5.30
2007,11,13,07,27,6.60
2007,11,13,07,28,8.20
2007,11,13,07,29,4.60
2007,11,13,07,30,7.00
2007,11,13,07,31,4.80
2007,11,13,07,32,6.20
2007,11,13,07,33,4.80
2007,11,13,07,34,5.80
2007,11,13,07,35,5.30
2007,11,13,07,36,4.20
2007,11,13,07,37,4.30
2007,11,13,07,38,4.00
2007,11,13,07,39,5.30
2007,11,13,07,40,4.60
2007,11,13,07,41,5.70
2007,11,13,07,42,7.50
2007,11,13,07,43,7.50
2007,11,13,07,44,6.80
2007,11,13,07,45,7.90
2007,11,13,07,46,7.00
2007,11,13,07,47,3.90
2007,11,13,07,48,5.10
2007,11,13,07,49,2.70
2007,11,13,07,50,3.30
2007,11,13,07,51,3.60
2007,11,13,07,52,3.60
2007,11,13,07,53,3.00
2007,11,13,07,54,3.60
2007,11,13,07,55,2.60
2007,11,13,07,56,5.50
2007,11,13,07,57,7.80
2007,11,13,07,58,7.70
2007,11,13,07,59,4.90
2007,11,13,08,00,6.50
2007,11,13,08,01,6.10
2007,11,13,08,02,5.80
2007,11,13,08,03,6.00
2007,11,13,08,04,5.80
2007,11,13,08,05,6.00
2007,11,13,08,06,6.30
2007,11,13,08,07,4.70
2007,11,13,08,08,6.30
2007,11,13,08,09,7.70
2007,11,13,08,10,6.50
2007,11,13,08,11,8.10
2007,11,13,08,12,6.10
2007,11,13,08,13,7.00
2007,11,13,08,14,7.10
2007,11,13,08,15,7.50
2007,11,13,08,16,9.40
2007,11,13,08,17,8.40
2007,11,13,08,18,8.60
2007,11,13,08,19,6.90
2007,11,13,08,20,8.20
2007,11,13,08,21,8.70
2007,11,13,08,22,9.50
2007,11,13,08,23,9.80
2007,11,13,08,24,10.10
2007,11,13,08,25,9.70
2007,11,13,08,26,9.80
2007,11,13,08,27,9.90
2007,11,13,08,28,9.50
2007,11,13,08,29,9.60
2007,11,13,08,30,5.50
2007,11,13,08,31,10.60
2007,11,13,08,32,6.30
2007,11,13,08,33,6.80
2007,11,13,08,34,7.20
2007,11,13,08,35,8.20
2007,11,13,08,36,11.30
2007,11,13,08,37,9.30
2007,11,13,08,38,9.90
2007,11,13,08,39,11.40
2007,11,13,08,40,10.80
2007,11,13,08,41,10.60
2007,11,13,08,42,14.10
2007,11,13,08,43,10.20
2007,11,13,08,44,14.70
2007,11,13,08,45,10.30
2007,11,13,08,46,13.40
2007,11,13,08,47,11.60
2007,11,13,08,48,11.50
2007,11,13,08,49,9.40
2007,11,13,08,50,9.40
2007,11,13,08,51,8.00
2007,11,13,08,52,15.40
2007,11,13,08,53,13.70
2007,11,13,08,54,10.80
2007,11,13,08,55,17.70
2007,11,13,08,56,14.40
2007,11,13,08,57,10.90
2007,11,13,08,58,14.90
2007,11,13,08,59,16.10
2007,11,13,09,00,10.20
2007,11,13,09,01,10.30
2007,11,13,09,02,8.00
2007,11,13,09,03,10.30
2007,11,13,09,04,9.10
2007,11,13,09,05,12.80
2007,11,13,09,06,15.60
2007,11,13,09,07,12.70
2007,11,13,09,08,12.10
2007,11,13,09,09,10.70
2007,11,13,09,10,9.20
2007,11,13,09,11,8.30
2007,11,13,09,12,12.50
2007,11,13,09,13,11.30
2007,11,13,09,14,7.40
2007,11,13,09,15,10.80
2007,11,13,09,16,10.00
2007,11,13,09,17,13.30
2007,11,13,09,18,9.90
2007,11,13,09,19,9.80
2007,11,13,09,20,7.40
2007,11,13,09,21,17.20
2007,11,13,09,22,20.00
2007,11,13,09,23,19.30
2007,11,13,09,24,14.10
2007,11,13,09,25,13.90
2007,11,13,09,26,16.20
2007,11,13,09,27,15.20
2007,11,13,09,28,13.50
2007,11,13,09,29,6.90
2007,11,13,09,30,11.60
2007,11,13,09,31,9.30
2007,11,13,09,32,9.10
2007,11,13,09,33,9.30
2007,11,13,09,34,4.00
2007,11,13,09,35,7.00
2007,11,13,09,36,6.20
2007,11,13,09,37,5.70
2007,11,13,09,38,7.40
2007,11,13,09,39,8.00
2007,11,13,09,40,6.00
2007,11,13,09,41,2.40
2007,11,13,09,42,5.70
2007,11,13,09,43,6.70
2007,11,13,09,44,8.00
2007,11,13,09,45,8.00
2007,11,13,09,46,9.30
2007,11,13,09,47,8.10
2007,11,13,09,48,12.90
2007,11,13,09,49,14.80
2007,11,13,09,50,9.30
2007,11,13,09,51,8.10
2007,11,13,09,52,10.30
2007,11,13,09,53,5.80
2007,11,13,09,54,8.90
2007,11,13,09,55,11.60
2007,11,13,09,56,10.00
2007,11,13,09,57,11.70
2007,11,13,09,58,4.80
2007,11,13,09,59,8.40
2007,11,13,10,00,8.50
2007,11,13,10,01,5.90
2007,11,13,10,02,7.60
2007,11,13,10,03,7.10
2007,11,13,10,04,8.40
2007,11,13,10,05,9.80
2007,11,13,10,06,12.10
2007,11,13,10,07,9.50
2007,11,13,10,08,8.70
2007,11,13,10,09,7.90
2007,11,13,10,10,7.40
2007,11,13,10,11,8.20
2007,11,13,10,12,7.10
2007,11,13,10,13,10.20
2007,11,13,10,14,7.80
2007,11,13,10,15,6.00
2007,11,13,10,16,9.30
2007,11,13,10,17,9.50
2007,11,13,10,18,9.40
2007,11,13,10,19,19.40
2007,11,13,10,20,8.50
2007,11,13,10,21,17.30
2007,11,13,10,22,9.10
2007,11,13,10,23,7.50
2007,11,13,10,24,7.10
2007,11,13,10,25,7.40
2007,11,13,10,26,10.40
2007,11,13,10,27,14.70
2007,11,13,10,28,11.30
2007,11,13,10,29,5.70
2007,11,13,10,30,13.00
2007,11,13,10,31,9.50
2007,11,13,10,32,13.40
2007,11,13,10,33,7.50
2007,11,13,10,34,9.30
2007,11,13,10,35,9.80
2007,11,13,10,36,9.10
2007,11,13,10,37,8.50
2007,11,13,10,38,13.50
2007,11,13,10,39,13.30
2007,11,13,10,40,12.70
2007,11,13,10,41,11.30
2007,11,13,10,42,11.30
2007,11,13,10,43,10.80
2007,11,13,10,44,10.10
2007,11,13,10,45,10.00
2007,11,13,10,46,10.60
2007,11,13,10,47,9.90
2007,11,13,10,48,8.20
2007,11,13,10,49,10.20
2007,11,13,10,50,13.50
2007,11,13,10,51,11.90
2007,11,13,10,52,7.40
2007,11,13,10,53,10.00
2007,11,13,10,54,6.00
2007,11,13,10,55,9.70
2007,11,13,10,56,9.10
2007,11,13,10,57,5.70
2007,11,13,10,58,7.30
2007,11,13,10,59,6.00
2007,11,13,11,00,6.70
2007,11,13,11,01,13.80
2007,11,13,11,02,18.40
2007,11,13,11,03,7.50
2007,11,13,11,04,8.00
2007,11,13,11,05,7.70
2007,11,13,11,06,6.50
2007,11,13,11,07,8.10
2007,11,13,11,08,11.10
2007,11,13,11,09,6.20
2007,11,13,11,10,8.20
2007,11,13,11,11,2.70
2007,11,13,11,12,3.60
2007,11,13,11,13,1.60
2007,11,13,11,14,6.60
2007,11,13,11,15,12.60
2007,11,13,11,16,6.80
2007,11,13,11,17,2.70
2007,11,13,11,18,3.00
2007,11,13,11,19,3.60
2007,11,13,11,20,2.50
2007,11,13,11,21,0.70
2007,11,13,11,22,3.90
2007,11,13,11,23,7.80
2007,11,13,11,24,9.20
2007,11,13,11,25,6.40
2007,11,13,11,26,4.10
2007,11,13,11,27,6.10
2007,11,13,11,28,2.70
2007,11,13,11,29,5.20
2007,11,13,11,30,10.80
2007,11,13,11,31,4.50
2007,11,13,11,32,6.60
2007,11,13,11,33,7.30
2007,11,13,11,34,3.20
2007,11,13,11,35,6.20
2007,11,13,11,36,7.60
2007,11,13,11,37,16.50
2007,11,13,11,38,12.90
2007,11,13,11,39,10.10
2007,11,13,11,40,10.70
2007,11,13,11,41,13.40
2007,11,13,11,42,8.40
2007,11,13,11,43,9.10
2007,11,13,11,44,10.30
2007,11,13,11,45,11.80
2007,11,13,11,46,8.10
2007,11,13,11,47,5.20
2007,11,13,11,48,2.90
2007,11,13,11,49,0.50
2007,11,13,11,50,0.50
2007,11,13,11,51,11.70
2007,11,13,11,52,14.30
2007,11,13,11,53,12.70
2007,11,13,11,54,11.70
2007,11,13,11,55,9.30
2007,11,13,11,56,16.40
2007,11,13,11,57,7.30
2007,11,13,11,58,5.70
2007,11,13,11,59,9.00
2007,11,13,12,00,8.50
2007,11,13,12,01,7.50
2007,11,13,12,02,7.70
2007,11,13,12,03,10.10
2007,11,13,12,04,13.20
2007,11,13,12,05,9.00
2007,11,13,12,06,11.10
2007,11,13,12,07,17.10
2007,11,13,12,08,9.50
2007,11,13,12,09,9.10
2007,11,13,12,10,13.60
2007,11,13,12,11,12.70
2007,11,13,12,12,5.40
2007,11,13,12,13,7.20
2007,11,13,12,14,8.60
2007,11,13,12,15,10.30
2007,11,13,12,16,9.30
2007,11,13,12,17,13.20
2007,11,13,12,18,12.20
2007,11,13,12,19,10.40
2007,11,13,12,20,6.30
2007,11,13,12,21,9.30
2007,11,13,12,22,10.70
2007,11,13,12,23,9.50
2007,11,13,12,24,6.30
2007,11,13,12,25,11.80
2007,11,13,12,26,13.70
2007,11,13,12,27,14.90
2007,11,13,12,28,19.60
2007,11,13,12,29,12.90
2007,11,13,12,30,11.70
2007,11,13,12,31,9.80
2007,11,13,12,32,19.20
2007,11,13,12,33,12.10
2007,11,13,12,34,17.60
2007,11,13,12,35,17.50
2007,11,13,12,36,10.50
2007,11,13,12,37,11.10
2007,11,13,12,38,15.50
2007,11,13,12,39,10.50
2007,11,13,12,40,9.20
2007,11,13,12,41,5.30
2007,11,13,12,42,13.80
2007,11,13,12,43,8.20
2007,11,13,12,44,14.10
2007,11,13,12,45,19.50
2007,11,13,12,46,13.70
2007,11,13,12,47,9.40
2007,11,13,12,48,9.30
2007,11,13,12,49,12.40
2007,11,13,12,50,9.60
2007,11,13,12,51,10.40
2007,11,13,12,52,12.50
2007,11,13,12,53,14.00
2007,11,13,12,54,15.00
2007,11,13,12,55,12.30
2007,11,13,12,56,17.80
2007,11,13,12,57,14.80
2007,11,13,12,58,19.10
2007,11,13,12,59,13.60
2007,11,13,13,00,11.90
2007,11,13,13,01,16.60
2007,11,13,13,02,3.90
2007,11,13,13,03,8.60
2007,11,13,13,04,10.10
2007,11,13,13,05,10.50
2007,11,13,13,06,6.90
2007,11,13,13,07,7.50
2007,11,13,13,08,6.00
2007,11,13,13,09,7.90
2007,11,13,13,10,15.60
2007,11,13,13,11,8.50
2007,11,13,13,12,13.60
2007,11,13,13,13,18.30
2007,11,13,13,14,11.40
2007,11,13,13,15,15.50
2007,11,13,13,16,9.20
2007,11,13,13,17,8.70
2007,11,13,13,18,9.20
2007,11,13,13,19,11.30
2007,11,13,13,20,8.10
2007,11,13,13,21,14.40
2007,11,13,13,22,11.60
2007,11,13,13,23,10.50
2007,11,13,13,24,10.90
2007,11,13,13,25,6.80
2007,11,13,13,26,7.60
2007,11,13,13,27,12.50
2007,11,13,13,28,15.10
2007,11,13,13,29,14.30
2007,11,13,13,30,15.00
2007,11,13,13,31,16.10
2007,11,13,13,32,13.30
2007,11,13,13,33,8.70
2007,11,13,13,34,12.90
2007,11,13,13,35,18.40
2007,11,13,13,36,15.90
2007,11,13,13,37,12.60
2007,11,13,13,38,17.10
2007,11,13,13,39,18.90
2007,11,13,13,40,17.90
2007,11,13,13,41,17.30
2007,11,13,13,42,16.60
2007,11,13,13,43,13.00
2007,11,13,13,44,17.90
2007,11,13,13,45,19.60
2007,11,13,13,46,20.30
2007,11,13,13,47,20.70
2007,11,13,13,48,25.70
2007,11,13,13,49,17.80
2007,11,13,13,50,12.40
2007,11,13,13,51,19.00
2007,11,13,13,52,16.30
2007,11,13,13,53,14.90
2007,11,13,13,54,13.20
2007,11,13,13,55,11.00
2007,11,13,13,56,12.50
2007,11,13,13,57,13.20
2007,11,13,13,58,16.90
2007,11,13,13,59,10.30
2007,11,13,14,00,15.00
2007,11,13,14,01,15.10
2007,11,13,14,02,16.30
2007,11,13,14,03,15.80
2007,11,13,14,04,12.70
2007,11,13,14,05,12.40
2007,11,13,14,06,11.60
2007,11,13,14,07,13.60
2007,11,13,14,08,9.30
2007,11,13,14,09,13.00
2007,11,13,14,10,11.00
2007,11,13,14,11,9.10
2007,11,13,14,12,14.70
2007,11,13,14,13,12.10
2007,11,13,14,14,12.30
2007,11,13,14,15,14.00
2007,11,13,14,16,14.90
2007,11,13,14,17,12.30
2007,11,13,14,18,12.00
2007,11,13,14,19,13.60
2007,11,13,14,20,17.10
2007,11,13,14,21,12.50
2007,11,13,14,22,14.90
2007,11,13,14,23,10.60
2007,11,13,14,24,11.50
2007,11,13,14,25,11.20
2007,11,13,14,26,10.10
2007,11,13,14,27,11.70
2007,11,13,14,28,16.00
2007,11,13,14,29,8.20
2007,11,13,14,30,14.10
2007,11,13,14,31,10.10
2007,11,13,14,32,12.70
2007,11,13,14,33,15.30
2007,11,13,14,34,8.10
2007,11,13,14,35,6.60
2007,11,13,14,36,11.70
2007,11,13,14,37,10.60
2007,11,13,14,38,11.30
2007,11,13,14,39,12.30
2007,11,13,14,40,10.20
2007,11,13,14,41,7.30
2007,11,13,14,42,8.50
2007,11,13,14,43,8.00
2007,11,13,14,44,10.40
2007,11,13,14,45,9.10
2007,11,13,14,46,9.40
2007,11,13,14,47,12.80
2007,11,13,14,48,6.80
2007,11,13,14,49,3.90
2007,11,13,14,50,4.50
2007,11,13,14,51,3.70
2007,11,13,14,52,2.00
2007,11,13,14,53,3.70
2007,11,13,14,54,6.30
2007,11,13,14,55,11.30
2007,11,13,14,56,11.00
2007,11,13,14,57,8.90
2007,11,13,14,58,5.90
2007,11,13,14,59,7.60
2007,11,13,15,00,9.10
2007,11,13,15,01,11.90
2007,11,13,15,02,6.70
2007,11,13,15,03,10.30
2007,11,13,15,04,8.00
2007,11,13,15,05,6.40
2007,11,13,15,06,7.00
2007,11,13,15,07,11.50
2007,11,13,15,08,10.10
2007,11,13,15,09,13.40
2007,11,13,15,10,11.00
2007,11,13,15,11,9.40
2007,11,13,15,12,6.30
2007,11,13,15,13,5.70
2007,11,13,15,14,8.90
2007,11,13,15,15,11.90
2007,11,13,15,16,13.60
2007,11,13,15,17,11.70
2007,11,13,15,18,10.10
2007,11,13,15,19,13.30
2007,11,13,15,20,12.90
2007,11,13,15,21,8.50
2007,11,13,15,22,11.50
2007,11,13,15,23,9.90
2007,11,13,15,24,7.40
2007,11,13,15,25,9.80
2007,11,13,15,26,9.70
2007,11,13,15,27,10.90
2007,11,13,15,28,9.40
2007,11,13,15,29,12.00
2007,11,13,15,30,8.00
2007,11,13,15,31,7.40
2007,11,13,15,32,10.80
2007,11,13,15,33,9.30
2007,11,13,15,34,9.50
2007,11,13,15,35,11.00
2007,11,13,15,36,8.90
2007,11,13,15,37,10.10
2007,11,13,15,38,7.90
2007,11,13,15,39,10.10
2007,11,13,15,40,9.20
2007,11,13,15,41,13.30
2007,11,13,15,42,10.00
2007,11,13,15,43,9.10
2007,11,13,15,44,9.00
2007,11,13,15,45,10.40
2007,11,13,15,46,9.10
2007,11,13,15,47,10.90
2007,11,13,15,48,7.90
2007,11,13,15,49,8.40
2007,11,13,15,50,8.20
2007,11,13,15,51,7.80
2007,11,13,15,52,9.10
2007,11,13,15,53,10.70
2007,11,13,15,54,6.80
2007,11,13,15,55,4.40
2007,11,13,15,56,5.80
2007,11,13,15,57,7.80
2007,11,13,15,58,7.60
2007,11,13,15,59,4.40
2007,11,13,16,00,3.60
2007,11,13,16,01,4.80
2007,11,13,16,02,4.30
2007,11,13,16,03,5.10
2007,11,13,16,04,4.50
2007,11,13,16,05,8.00
2007,11,13,16,06,9.60
2007,11,13,16,07,8.10
2007,11,13,16,08,10.00
2007,11,13,16,09,7.60
2007,11,13,16,10,7.60
2007,11,13,16,11,7.50
2007,11,13,16,12,6.50
2007,11,13,16,13,9.00
2007,11,13,16,14,9.90
2007,11,13,16,15,6.90
2007,11,13,16,16,5.60
2007,11,13,16,17,5.40
2007,11,13,16,18,6.30
2007,11,13,16,19,6.20
2007,11,13,16,20,2.80
2007,11,13,16,21,4.90
2007,11,13,16,22,7.60
2007,11,13,16,23,6.10
2007,11,13,16,24,8.00
2007,11,13,16,25,8.70
2007,11,13,16,26,8.40
2007,11,13,16,27,9.30
2007,11,13,16,28,8.20
2007,11,13,16,29,9.40
2007,11,13,16,30,6.70
2007,11,13,16,31,8.40
2007,11,13,16,32,6.20
2007,11,13,16,33,6.50
2007,11,13,16,34,5.40
2007,11,13,16,35,6.00
2007,11,13,16,36,7.80
2007,11,13,16,37,5.60
2007,11,13,16,38,6.90
2007,11,13,16,39,7.30
2007,11,13,16,40,3.90
2007,11,13,16,41,5.00
2007,11,13,16,42,4.40
2007,11,13,16,43,2.30
2007,11,13,16,44,4.70
2007,11,13,16,45,2.90
2007,11,13,16,46,4.30
2007,11,13,16,47,3.90
2007,11,13,16,48,6.00
2007,11,13,16,49,6.30
2007,11,13,16,50,5.80
2007,11,13,16,51,3.90
2007,11,13,16,52,3.30
2007,11,13,16,53,4.30
2007,11,13,16,54,3.20
2007,11,13,16,55,2.50
2007,11,13,16,56,3.50
2007,11,13,16,57,3.40
2007,11,13,16,58,3.10
2007,11,13,16,59,2.80
2007,11,13,17,00,1.40
2007,11,13,17,01,4.10
2007,11,13,17,02,4.20
2007,11,13,17,03,2.10
2007,11,13,17,04,4.30
2007,11,13,17,05,2.60
2007,11,13,17,06,2.70
2007,11,13,17,07,0.60
2007,11,13,17,08,0.00
2007,11,13,17,09,0.00
2007,11,13,17,10,0.00
2007,11,13,17,11,0.00
2007,11,13,17,12,0.10
2007,11,13,17,13,0.00
2007,11,13,17,14,0.00
2007,11,13,17,15,0.00
2007,11,13,17,16,1.80
2007,11,13,17,17,0.20
2007,11,13,17,18,0.20
2007,11,13,17,19,0.90
2007,11,13,17,20,0.70
2007,11,13,17,21,0.00
2007,11,13,17,22,0.60
2007,11,13,17,23,0.90
2007,11,13,17,24,0.30
2007,11,13,17,25,0.40
2007,11,13,17,26,0.20
2007,11,13,17,27,0.00
2007,11,13,17,28,0.10
2007,11,13,17,29,0.00
2007,11,13,17,30,0.10
2007,11,13,17,31,0.00
2007,11,13,17,32,0.00
2007,11,13,17,33,0.00
2007,11,13,17,34,0.00
2007,11,13,17,35,0.00
2007,11,13,17,36,0.00
2007,11,13,17,37,0.00
2007,11,13,17,38,0.20
2007,11,13,17,39,0.60
2007,11,13,17,40,1.90
2007,11,13,17,41,2.20
2007,11,13,17,42,0.70
2007,11,13,17,43,0.00
2007,11,13,17,44,0.40
2007,11,13,17,45,0.40
2007,11,13,17,46,0.00
2007,11,13,17,47,0.00
2007,11,13,17,48,0.00